#timestamp,LO_Frequency,Hit,StdDev 
1551664815.4,286047007.1,N
1551664835.3,286047008.0,N
1551664855.1,286047008.9,N
1551664875.9,286047006.2,N
1551664895.7,286047007.5,N
1551664915.5,286047004.5,N
1551664935.4,286047007.2,N
1551664955.2,286047005.7,N
1551664975.0,286047003.5,N
1551664976.0,286047003.5,N
1551664995.8,286047004.1,N
1551665015.6,286047001.5,N
1551665035.5,286047003.2,N
1551665055.3,286047003.1,N
1551665075.1,286047003.8,N
1551665095.9,286047003.3,N
1551665115.7,286047003.8,N
1551665135.6,286047002.2,N
1551665155.4,286047002.7,N
1551665175.2,286047002.2,N
1551665195.1,286047000.4,N
1551665196.0,286047000.4,N
1551665215.8,286046998.2,N
1551665235.6,286046998.6,N
1551665255.5,286046998.9,N
1551665275.3,286047001.1,N
1551665295.2,286046998.1,N
1551665315.9,286047000.6,N
1551665335.7,286046999.9,N
1551665355.6,286047001.2,N
1551665375.4,286047004.3,N
1551665395.2,286047004.4,N
1551665415.1,286047002.8,N
1551665416.0,286047002.8,N
1551665435.8,286047002.7,N
1551665455.7,286047002.7,N
1551665475.5,286047002.1,N
1551665495.3,286047002.1,N
1551665515.2,286047001.7,N
1551665535.0,286047002.1,N
1551665535.9,286047002.1,N
1551665555.8,286047002.0,N
1551665575.6,286047002.5,N
1551665595.4,286047002.4,N
1551665615.3,286047000.6,N
1551665635.1,286046998.1,N
1551665655.8,286046998.1,N
1551665675.7,286046998.3,N
1551665695.5,286047000.3,N
1551665715.4,286047000.9,N
1551665735.2,286047000.8,N
1551665755.0,286047000.7,N
1551665755.9,286047000.7,N
1551665775.8,286047001.2,N
1551665795.6,286047000.7,N
1551665815.4,286046998.5,N
1551665835.3,286047001.2,N
1551665855.1,286047000.0,N
1551665875.9,286047001.1,N
1551665895.7,286047000.4,N
1551665915.5,286046999.9,N
1551665935.4,286047002.8,N
1551665955.2,286047002.3,N
1551665975.1,286047000.1,N
1551665976.0,286047000.1,N
1551665995.8,286047001.5,N
1551666015.6,286047000.7,N
1551666035.5,286047000.8,N
1551666055.3,286047001.1,N
1551666075.1,286047000.8,N
1551666095.9,286047000.0,N
1551666115.7,286047000.4,N
1551666135.6,286047000.6,N
1551666155.4,286047001.1,N
1551666175.2,286047001.1,N
1551666195.1,286047000.1,N
1551666196.0,286047000.1,N
1551666215.8,286046999.9,N
1551666235.7,286047001.6,N
1551666255.5,286047005.7,Y
1551666275.3,286047005.2,P
1551666295.2,286047005.4,N
1551666315.0,286047004.7,N
1551666315.9,286047004.7,N
1551666335.8,286047005.6,Y
1551666355.6,286047000.8,P
1551666375.4,286046998.4,N
1551666395.3,286047001.2,N
1551666415.1,286047000.4,N
1551666435.8,286047000.9,N
1551666455.7,286047000.4,N
1551666475.5,286046999.9,N
1551666495.4,286046998.5,N
1551666515.2,286047001.2,N
1551666535.0,286046998.4,N
1551666535.9,286046998.4,N
1551666555.8,286046996.7,N
1551666575.6,286046996.9,N
1551666595.4,286046997.8,N
1551666615.3,286046995.7,N
1551666635.1,286046992.5,Y
1551666655.9,286046989.5,P
1551666675.7,286046987.9,N
1551666695.5,286046987.3,N
1551666715.4,286046989.3,N
1551666735.2,286046988.8,N
1551666755.0,286046991.6,N
1551666755.9,286046991.6,N
1551666775.8,286046990.4,N
1551666795.6,286046990.1,N
1551666815.5,286046994.7,N
1551666835.3,286046993.9,N
1551666855.1,286046995.0,N
1551666875.9,286047011.9,Y
1551666895.7,286047005.0,P
1551666915.6,286047008.8,N
1551666935.4,286047006.6,N
1551666955.2,286047007.1,N
1551666975.1,286047006.9,N
1551666976.0,286047006.9,N
1551666995.8,286047007.1,N
1551667015.6,286047006.4,N
1551667035.5,286047004.8,N
1551667055.3,286047006.8,N
1551667075.2,286047006.8,N
1551667095.9,286047007.1,N
1551667115.7,286047004.8,N
1551667135.6,286047006.8,N
1551667155.4,286047007.3,N
1551667175.2,286047006.8,N
1551667195.1,286047009.0,N
1551667196.0,286047009.0,N
1551667215.8,286047010.7,N
1551667235.7,286047010.7,N
1551667255.5,286047010.4,N
1551667275.3,286047008.4,N
1551667295.2,286047008.6,N
1551667315.0,286047006.1,N
1551667315.9,286047006.1,N
1551667335.8,286047006.3,N
1551667355.6,286047005.5,N
1551667375.4,286047005.6,N
1551667395.3,286047003.3,N
1551667415.1,286047005.9,N
1551667435.8,286047005.2,N
1551667455.7,286047004.9,N
1551667475.5,286047008.3,Y
1551667495.4,286047002.6,P
1551667515.2,286047002.6,N
1551667535.0,286047002.8,N
1551667535.9,286047002.8,N
1551667555.8,286047001.1,N
1551667575.6,286046998.1,N
1551667595.5,286046998.4,N
1551667615.3,286046999.3,N
1551667635.1,286046998.9,N
1551667655.9,286046999.4,N
1551667675.7,286047000.8,N
1551667695.5,286047001.9,N
1551667715.4,286047002.7,N
1551667735.2,286047002.2,N
1551667755.1,286047003.6,N
1551667756.0,286047003.6,N
1551667775.8,286047006.0,N
1551667795.6,286047005.7,N
1551667815.5,286047005.7,N
1551667835.3,286047004.9,N
1551667855.2,286047008.8,Y
1551667875.9,286047003.2,P
1551667895.7,286047002.4,P
1551667915.6,286047002.7,P
1551667935.4,286046999.8,N
1551667955.2,286046998.5,N
1551667975.1,286046998.5,N
1551667976.0,286046998.5,N
1551667995.8,286046999.6,N
1551668015.7,286046997.2,N
1551668035.5,286046999.0,N
1551668055.3,286046999.0,N
1551668075.2,286046999.2,N
1551668095.0,286046998.7,N
1551668095.9,286046998.7,N
1551668115.7,286047000.1,N
1551668135.6,286047001.9,N
1551668155.4,286047002.6,N
1551668175.3,286047004.9,N
1551668195.1,286047002.9,N
1551668215.8,286047005.9,N
1551668235.7,286047005.6,N
1551668255.5,286047003.2,N
1551668275.3,286047001.9,N
1551668295.2,286047001.7,N
1551668315.0,286047005.7,N
1551668315.9,286047005.7,N
1551668335.8,286047005.9,N
1551668355.6,286047003.2,N
1551668375.4,286047001.8,N
1551668395.3,286047003.8,N
